TimeEDT,TemperatureF,Dew PointF,Humidity,Sea Level PressureIn,VisibilityMPH,Wind Direction,Wind SpeedMPH,Gust SpeedMPH,PrecipitationIn,Events,Conditions,WindDirDegrees,DateUTC
12:15 AM,69.8,69.8,100,29.79,10.0,Calm,Calm,-,N/A,,Mostly Cloudy,0,2013-07-23 04:15:00
12:35 AM,69.8,69.8,100,29.78,7.0,Calm,Calm,-,N/A,,Scattered Clouds,0,2013-07-23 04:35:00
12:55 AM,69.8,69.8,100,29.78,10.0,Calm,Calm,-,N/A,,Scattered Clouds,0,2013-07-23 04:55:00
1:15 AM,69.8,69.8,100,29.77,10.0,Calm,Calm,-,N/A,,Mostly Cloudy,0,2013-07-23 05:15:00
1:35 AM,69.8,69.8,100,29.77,5.0,Calm,Calm,-,N/A,,Mostly Cloudy,0,2013-07-23 05:35:00
1:55 AM,69.8,69.8,100,29.76,7.0,Calm,Calm,-,N/A,,Overcast,0,2013-07-23 05:55:00
2:15 AM,69.8,69.8,100,29.75,7.0,Calm,Calm,-,N/A,,Mostly Cloudy,0,2013-07-23 06:15:00
2:35 AM,69.8,69.8,100,29.75,5.0,SE,4.6,-,N/A,,Mostly Cloudy,130,2013-07-23 06:35:00
2:55 AM,69.8,69.8,100,29.75,4.0,SSW,5.8,-,N/A,Rain,Light Rain,200,2013-07-23 06:55:00
3:15 AM,69.8,69.8,100,29.75,3.0,Calm,Calm,-,0.13,Rain,Heavy Rain,0,2013-07-23 07:15:00
3:35 AM,69.8,69.8,100,29.75,7.0,Calm,Calm,-,0.14,,Overcast,0,2013-07-23 07:35:00
3:55 AM,69.8,69.8,100,29.75,5.0,Calm,Calm,-,0.14,,Overcast,0,2013-07-23 07:55:00
4:15 AM,69.8,69.8,100,29.74,1.5,Calm,Calm,-,N/A,,Overcast,0,2013-07-23 08:15:00
4:35 AM,69.8,69.8,100,29.74,5.0,Calm,Calm,-,N/A,,Overcast,0,2013-07-23 08:35:00
4:55 AM,69.8,69.8,100,29.75,3.0,Calm,Calm,-,N/A,,Overcast,0,2013-07-23 08:55:00
5:15 AM,69.8,69.8,100,29.74,5.0,Calm,Calm,-,N/A,,Overcast,0,2013-07-23 09:15:00
5:35 AM,69.8,69.8,100,29.74,5.0,Calm,Calm,-,N/A,,Overcast,0,2013-07-23 09:35:00
5:55 AM,69.8,69.8,100,29.75,5.0,Calm,Calm,-,N/A,,Overcast,0,2013-07-23 09:55:00
6:15 AM,69.8,69.8,100,29.76,3.0,NW,4.6,-,0.08,Rain,Heavy Rain,310,2013-07-23 10:15:00
6:35 AM,69.8,69.8,100,29.75,7.0,Calm,Calm,-,0.08,,Overcast,0,2013-07-23 10:35:00
6:55 AM,69.8,69.8,100,29.75,7.0,Calm,Calm,-,0.08,,Mostly Cloudy,0,2013-07-23 10:55:00
7:15 AM,69.8,69.8,100,29.76,7.0,Calm,Calm,-,N/A,,Mostly Cloudy,0,2013-07-23 11:15:00
7:35 AM,69.8,69.8,100,29.76,10.0,Calm,Calm,-,N/A,,Scattered Clouds,0,2013-07-23 11:35:00
7:55 AM,71.6,71.6,100,29.76,10.0,Calm,Calm,-,N/A,,Scattered Clouds,0,2013-07-23 11:55:00
8:15 AM,71.6,71.6,100,29.76,10.0,Calm,Calm,-,N/A,,Scattered Clouds,0,2013-07-23 12:15:00
8:35 AM,73.4,71.6,94,29.76,10.0,Calm,Calm,-,N/A,,Mostly Cloudy,0,2013-07-23 12:35:00
8:55 AM,75.2,71.6,89,29.76,10.0,WSW,4.6,-,N/A,,Mostly Cloudy,240,2013-07-23 12:55:00
9:15 AM,75.2,71.6,89,29.75,10.0,WSW,5.8,-,N/A,,Mostly Cloudy,240,2013-07-23 13:15:00
9:35 AM,77.0,71.6,83,29.75,10.0,West,8.1,-,N/A,,Scattered Clouds,270,2013-07-23 13:35:00
9:55 AM,78.8,71.6,78,29.75,10.0,WSW,11.5,-,N/A,,Scattered Clouds,250,2013-07-23 13:55:00
10:15 AM,78.8,69.8,74,29.75,10.0,West,10.4,16.1,N/A,,Mostly Cloudy,280,2013-07-23 14:15:00
10:35 AM,78.8,69.8,74,29.75,10.0,WNW,13.8,17.3,N/A,,Mostly Cloudy,300,2013-07-23 14:35:00
10:55 AM,78.8,68.0,69,29.74,10.0,West,15.0,-,N/A,,Mostly Cloudy,280,2013-07-23 14:55:00
11:15 AM,78.8,68.0,69,29.75,10.0,WNW,16.1,21.9,N/A,,Mostly Cloudy,290,2013-07-23 15:15:00
11:35 AM,78.8,68.0,69,29.75,10.0,WNW,15.0,20.7,N/A,,Overcast,290,2013-07-23 15:35:00
11:55 AM,80.6,69.8,70,29.75,10.0,NW,15.0,21.9,N/A,,Scattered Clouds,310,2013-07-23 15:55:00
12:15 PM,80.6,68.0,65,29.76,10.0,WNW,13.8,21.9,N/A,,Scattered Clouds,300,2013-07-23 16:15:00
12:35 PM,82.4,69.8,66,29.75,10.0,NW,16.1,-,N/A,,Scattered Clouds,320,2013-07-23 16:35:00
12:55 PM,80.6,69.8,70,29.75,10.0,West,15.0,18.4,N/A,,Scattered Clouds,280,2013-07-23 16:55:00
1:15 PM,80.6,68.0,65,29.76,10.0,NW,16.1,19.6,N/A,,Mostly Cloudy,310,2013-07-23 17:15:00
1:35 PM,80.6,68.0,65,29.75,10.0,WNW,10.4,-,N/A,,Mostly Cloudy,290,2013-07-23 17:35:00
1:55 PM,80.6,68.0,65,29.75,10.0,WNW,11.5,-,N/A,,Overcast,300,2013-07-23 17:55:00
2:15 PM,80.6,68.0,65,29.75,10.0,NW,11.5,20.7,N/A,,Mostly Cloudy,310,2013-07-23 18:15:00
2:35 PM,82.4,68.0,62,29.75,10.0,WNW,16.1,23.0,N/A,,Scattered Clouds,290,2013-07-23 18:35:00
2:55 PM,82.4,68.0,62,29.75,10.0,NW,15.0,20.7,N/A,,Clear,310,2013-07-23 18:55:00
3:15 PM,82.4,68.0,62,29.74,10.0,NW,12.7,-,N/A,,Clear,310,2013-07-23 19:15:00
3:35 PM,82.4,68.0,62,29.73,10.0,NW,15.0,20.7,N/A,,Clear,310,2013-07-23 19:35:00
4:15 PM,84.2,68.0,58,29.72,10.0,NW,11.5,-,N/A,,Scattered Clouds,310,2013-07-23 20:15:00
4:35 PM,84.2,68.0,58,29.72,10.0,NW,9.2,-,N/A,,Scattered Clouds,310,2013-07-23 20:35:00
4:55 PM,86.0,68.0,55,29.71,10.0,NW,13.8,-,N/A,,Mostly Cloudy,310,2013-07-23 20:55:00
5:15 PM,86.0,68.0,55,29.70,10.0,NW,9.2,-,N/A,,Mostly Cloudy,310,2013-07-23 21:15:00
5:35 PM,86.0,68.0,55,29.70,10.0,NW,8.1,-,N/A,,Mostly Cloudy,310,2013-07-23 21:35:00
5:55 PM,86.0,68.0,55,29.69,10.0,WNW,6.9,-,N/A,,Scattered Clouds,300,2013-07-23 21:55:00
6:15 PM,86.0,68.0,55,29.70,10.0,NW,9.2,-,N/A,,Scattered Clouds,310,2013-07-23 22:15:00
6:35 PM,86.0,68.0,55,29.70,10.0,NW,9.2,-,N/A,,Scattered Clouds,310,2013-07-23 22:35:00
6:55 PM,84.2,68.0,58,29.70,10.0,WNW,5.8,16.1,N/A,,Scattered Clouds,290,2013-07-23 22:55:00
7:15 PM,82.4,68.0,62,29.71,10.0,NW,5.8,-,N/A,,Mostly Cloudy,310,2013-07-23 23:15:00
7:35 PM,80.6,68.0,65,29.71,10.0,NW,4.6,-,N/A,,Mostly Cloudy,310,2013-07-23 23:35:00
7:55 PM,80.6,66.2,61,29.72,10.0,WNW,5.8,-,N/A,,Scattered Clouds,300,2013-07-23 23:55:00
8:15 PM,78.8,68.0,69,29.72,10.0,WNW,3.5,-,N/A,,Clear,290,2013-07-24 00:15:00
8:35 PM,77.0,68.0,74,29.72,10.0,WNW,4.6,-,N/A,,Mostly Cloudy,300,2013-07-24 00:35:00
8:55 PM,77.0,68.0,74,29.73,10.0,WNW,5.8,-,N/A,,Scattered Clouds,290,2013-07-24 00:55:00
9:15 PM,77.0,68.0,74,29.73,10.0,West,5.8,-,N/A,,Clear,280,2013-07-24 01:15:00
9:35 PM,78.8,66.2,65,29.73,10.0,West,5.8,-,N/A,,Clear,270,2013-07-24 01:35:00
9:55 PM,78.8,66.2,65,29.73,10.0,Calm,Calm,-,N/A,,Clear,0,2013-07-24 01:55:00
10:15 PM,75.2,68.0,78,29.73,10.0,SW,3.5,-,N/A,,Scattered Clouds,220,2013-07-24 02:15:00
10:35 PM,77.0,66.2,69,29.73,10.0,SW,5.8,-,N/A,,Mostly Cloudy,220,2013-07-24 02:35:00
10:55 PM,77.0,66.2,69,29.73,10.0,WSW,6.9,-,N/A,,Mostly Cloudy,240,2013-07-24 02:55:00
11:15 PM,77.0,66.2,69,29.74,10.0,West,8.1,-,N/A,,Scattered Clouds,270,2013-07-24 03:15:00
11:35 PM,77.0,66.2,69,29.76,10.0,West,15.0,19.6,N/A,,Scattered Clouds,280,2013-07-24 03:35:00
11:55 PM,77.0,62.6,61,29.76,10.0,West,11.5,-,N/A,,Scattered Clouds,280,2013-07-24 03:55:00